186 
ASUS46 KSEW 190710
RWRWA 

WASHINGTON REGIONAL WEATHER ROUNDUP
NATIONAL WEATHER SERVICE SEATTLE WA
1200 AM PDT SAT APR 19 2014

NOTE:"FAIR" INDICATES FEW OR NO CLOUDS BELOW 12,000 FEET WITH NO 
SIGNIFICANT WEATHER AND/OR OBSTRUCTIONS TO VISIBILITY.

WAZ505-507>509-190800-
SEATTLE, TACOMA, EVERETT, AND VICINITY
  
CITY           SKY/WX    TMP DP  RH WIND       PRES   REMARKS
EVERETT        MOCLDY    46  36  68 E8        29.92F                  
BOEING FIELD   PTCLDY    50  38  63 CALM      29.91F                  
RENTON         MOCLDY    46  39  76 CALM      29.91F                  
SEATAC AIRPORT MOCLDY    49  35  58 E6        29.91F                  
JBLM-MCCHORD   PTCLDY    42  41  94 CALM      29.91F                  
PUYALLUP         N/A     39  39 100 CALM      29.91F                  
JBLM-FT LEWIS  PTCLDY    43  39  86 E1        29.90F                  
TACOMA NARROWS PTCLDY    48  37  65 NE3       29.90F                  
$$
 
WAZ001-503-506-510-514-515-190800-
NORTH INTERIOR
  
CITY           SKY/WX    TMP DP  RH WIND       PRES   REMARKS
BELLINGHAM     MOCLDY    45  37  73 N3        29.93F                  
FRIDAY HARBOR  CLOUDY    47  37  68 VRB6      29.93F                  
EASTSOUND      CLOUDY    48  37  66 CALM      29.92F                  
PORT ANGELES   MOCLDY    40  37  89 CALM      29.90F                  
NAS WHIDBEY    MOCLDY    46  37  71 E7        29.92F                  
BURLINGTON     CLEAR    N/A N/A N/A NE8       29.95F                  
$$
 
WAZ020-022-039-040-504-511-512-190800-
SOUTHWEST INTERIOR
  
CITY           SKY/WX    TMP DP  RH WIND       PRES   REMARKS
SHELTON        PTCLDY    44  40  85 N5        29.89F                  
OLYMPIA        PTCLDY    41  37  86 N3        29.90F                  
CHEHALIS       FAIR      41  41 100 CALM      29.91F                  
KELSO          PTCLDY    43  37  81 CALM      29.91F                  
VANCOUVER      PTCLDY    45  38  76 CALM      29.88F                  
SCAPPOOSE, OR  PTCLDY    43  39  86 NW3       29.88F                  
PORTLAND, OR   MOCLDY    49  41  74 CALM      29.88F                  
$$
 
WAZ021-516-517-190800-
WASHINGTON COAST
  
CITY           SKY/WX    TMP DP  RH WIND       PRES   REMARKS
FORKS          MOCLDY    42  40  92 E3        29.86F                  
HOQUIAM        PTCLDY    46  41  82 E10       29.86F                  
ASTORIA, OR    PTCLDY    44  39  82 CALM      29.85F                  
$$
 
WAZ019-023-024-040-518-519-190800-
CASCADE MOUNTAINS AND COLUMBIA GORGE
  
CITY           SKY/WX    TMP DP  RH WIND       PRES   REMARKS
STAMPEDE PASS  NOT AVBL                                               
TROUTDALE, OR  PTCLDY    50  41  71 E12       29.86F                  
THE DALLES, OR CLEAR     43  36  76 E5        29.94S                  
$$

WAZ026-027-041>044-520-521-190800-
EAST SLOPES
  
CITY           SKY/WX    TMP DP  RH WIND       PRES   REMARKS
OMAK           CLEAR     42  21  43 CALM      29.94S                  
WENATCHEE      CLEAR     44  26  49 NW6       29.95F                  
ELLENSBURG     CLEAR     35  26  69 N3        29.94F                  
YAKIMA         CLEAR     41  28  60 W9        29.96S                  
$$

WAZ028-034-035-190800-
COLUMBIA BASIN
  
CITY           SKY/WX    TMP DP  RH WIND       PRES   REMARKS
EPHRATA        CLEAR     45  24  43 NW8       29.93F                  
MOSES LAKE     PTCLDY    40  27  59 SE3       29.95F                  
HANFORD        NOT AVBL                                               
PASCO          CLEAR     36  34  92 N7        29.96F                  
HERMISTON, OR  CLEAR     38  33  82 SE7       29.94F                  
$$

WAZ036>038-190800-
NORTHEAST WASHINGTON
  
CITY           SKY/WX    TMP DP  RH WIND       PRES   REMARKS
SPOKANE GEIGER CLEAR     40  27  59 S9        29.96F                  
SPOKANE FELTS  CLEAR     40  30  67 NE5       29.98S                  
FAIRCHILD AFB  CLEAR     36  28  73 S7        29.95F                  
COEURDALENE,ID CLEAR     37  28  70 S6        29.99S                  
DEER PARK      CLEAR     38  25  59 SE7       29.97S                  
$$

WAZ029>033-190800-
SOUTHEAST WASHINGTON
  
CITY           SKY/WX    TMP DP  RH WIND       PRES   REMARKS
PULLMAN        CLEAR     38  26  62 VRB3      30.00S                  
LEWISTON, ID   CLEAR     43  26  51 E7        29.99F                  
WALLA WALLA    CLEAR     44  32  62 E9        29.95F                  
PENDLETON, OR  CLEAR     38  31  76 E9        29.93F                  
$$